Location: Unspecified
(0.0000°N, 0.0000°E)
Time: 09:07:34
(UTC+00:00)

Vanguard 1 - Pass Details

Date: 09 December 2017
Orbit: 649 x 3834 km, 34.3° (Epoch: 20 January)

Event Time Altitude Azimuth Distance (km) Brightness Sun altitude
Rises 04:28:44 0° 220° (SW) 6,463 14.1 -19.2°
Reaches altitude 10° 04:32:57 10° 213° (SSW) 5,821 13.9 -18.2°
Maximum altitude 04:51:41 44° 144° (SE) 4,593 13.9 -13.9°
Drops below altitude 10° 05:13:01 10° 79° (E) 6,645 15.2 -9.1°
Sets 05:18:07 0° 73° (ENE) 7,411 15.4 -7.9°
